This demonstration page uses our WeatherBlox Daily Observations layout. Learn more.

Left ArrowRight Arrow

38.20091, -84.87328

Hourly Observations for July 17, 2019

Temp ( °F °C ) Dew Point ( °F °C ) Humidity (%) Winds ( mph kmh ) Pressure ( in mb ) Visibility ( mi km ) Precip ( " mm )
12:53 am 00:53 Clear 76 24.4 70 21.1 82 82 SSW 8 13 29.96 1015 10 16 0.00 0.00
1:53 am 01:53 Mostly Cloudy 76 24.4 71 21.7 85 85 S 8 13 29.95 1014 10 16 0.00 0.00
2:05 am 02:05 Cloudy 76 24.4 71 21.7 85 85 SSW 8 13 29.94 1014 10 16 0.00 0.00
2:18 am 02:18 Cloudy 76 24.4 70 21.1 82 82 S 7 11 29.94 1014 10 16 0.00 0.00
2:53 am 02:53 Cloudy with Light Rain 75 23.9 71 21.7 88 88 SSW 6 9 29.94 1014 9 14 0.01 0.25
3:53 am 03:53 Mostly Cloudy 75 23.9 71 21.7 88 88 SSW 9 15 29.92 1013 10 16 0.00 0.00
4:00 am 04:00 Mostly Cloudy 75 23.9 71 21.7 88 88 S 9 15 29.91 1013 10 16 0.00 0.00
4:53 am 04:53 Mostly Cloudy 75 23.9 71 21.7 88 88 SSW 7 11 29.92 1013 10 16 0.00 0.00
5:53 am 05:53 Cloudy 75 23.9 71 21.7 88 88 SSW 8 13 29.93 1013 10 16 0.00 0.00
6:32 am 06:32 Cloudy 75 23.9 71 21.7 88 88 SSW 9 15 29.94 1014 10 16 0.00 0.00
6:53 am 06:53 Cloudy 75 23.9 71 21.7 88 88 SSW 10 17 29.93 1014 10 16 0.00 0.00
7:28 am 07:28 Cloudy with Rain 74 23.3 72 22.2 94 94 SSW 12 19 29.94 1014 3 4 0.06 1.52
7:31 am 07:31 Cloudy with Rain 74 23.3 72 22.2 94 94 SSW 10 17 29.94 1014 3 5 0.06 1.52
7:50 am 07:50 Cloudy 75 24 72 22 89 89 SSW 10 17 29.94 1014 10 16 0.06 1.52
7:53 am 07:53 Cloudy 75 23.9 72 22.2 90 90 SSW 12 19 29.93 1014 10 16 0.06 1.52
8:01 am 08:01 Cloudy 75 23.9 72 22.2 90 90 SSW 10 17 29.94 1014 10 16 0.00 0.00
8:50 am 08:50 Cloudy with Light Rain 75 24 72 22 89 89 SW 10 17 29.94 1014 5 8 0.01 0.25
8:53 am 08:53 Cloudy with Light Rain 75 23.9 72 22.2 90 90 SW 12 19 29.96 1015 5 8 0.01 0.25
9:45 am 09:45 Cloudy with Light Rain 75 23.9 73 22.8 94 94 SSW 9 15 29.94 1014 2 3 0.04 1.02
9:53 am 09:53 Cloudy with Light Rain 75 23.9 73 22.8 94 94 SW 9 15 29.96 1015 8 13 0.04 1.02
10:53 am 10:53 Cloudy 76 24.4 74 23.3 94 94 SSW 9 15 29.97 1015 10 16 0.01 0.25
11:35 am 11:35 Cloudy 80 26.7 75 23.9 85 85 SW 10 17 29.97 1015 10 16 0.00 0.00
11:53 am 11:53 Cloudy 81 27.2 75 23.9 82 82 WSW 13 20 29.97 1015 10 16 0.00 0.00
12:23 pm 12:23 Cloudy with Light Rain 78 25.6 74 23.3 87 87 WSW 10 17 29.97 1015 3 4 0.03 0.76
12:29 pm 12:29 Cloudy 79 26.1 75 23.9 88 88 WSW 9 15 29.97 1015 10 16 0.03 0.76
12:53 pm 12:53 Cloudy 81 27.2 75 23.9 82 82 SW 12 19 29.97 1015 10 16 0.03 0.76
1:10 pm 13:10 Cloudy 81 27.2 74 23.3 79 79 SW 12 19 29.97 1015 10 16 0.00 0.00
1:44 pm 13:44 Mostly Cloudy 84 28.9 75 23.9 74 74 SW 13 20 29.97 1015 10 16 0.00 0.00
1:53 pm 13:53 Mostly Cloudy 83 28.3 74 23.3 74 74 WSW 9 15 29.96 1015 10 16 0.00 0.00
2:23 pm 14:23 Mostly Cloudy 86 30 75 23.9 70 70 SW 12 19 29.94 1014 10 16 0.00 0.00
2:53 pm 14:53 Mostly Cloudy 85 29.4 74 23.3 70 70 W 10 17 29.94 1014 10 16 0.00 0.00
3:01 pm 15:01 Mostly Cloudy 86 30 74 23.3 67 67 WSW 7 11 29.94 1014 10 16 0.00 0.00
3:53 pm 15:53 Mostly Cloudy 85 29.4 74 23.3 70 70 WSW 7 11 29.92 1013 10 16 0.00 0.00
4:53 pm 16:53 Mostly Cloudy 88 31.1 74 23.3 63 63 WSW 8 13 29.90 1013 10 16 0.00 0.00
5:53 pm 17:53 Partly Cloudy 88 31.1 73 22.8 61 61 WSW 10 17 29.90 1013 10 16 0.00 0.00
6:26 pm 18:26 Cloudy with Thunderstorms 77 25 73 22.8 88 88 NW 9 15 29.91 1013 4 6 0.03 0.76
6:39 pm 18:39 Cloudy with Rain 77 25 74 23.3 90 90 SW 9 15 29.91 1013 3 4 0.07 1.78
6:46 pm 18:46 Cloudy with Thunderstorms 77 25 74 23.3 90 90 SSW 6 9 29.91 1013 6 10 0.07 1.78
6:53 pm 18:53 Mostly Cloudy with Thunderstorms 79 26.1 75 23.9 88 88 SW 6 9 29.91 1013 10 16 0.07 1.78
7:04 pm 19:04 Partly Cloudy 80 26.7 75 23.9 85 85 SW 10 17 29.91 1013 10 16 0.00 0.00
7:53 pm 19:53 Sunny 81 27.2 73 22.8 77 77 Calm 29.91 1013 10 16 0.00 0.00
8:53 pm 20:53 Mostly Cloudy 79 26.1 75 23.9 88 88 WSW 5 7 29.93 1014 10 16 0.00 0.00
9:17 pm 21:17 Partly Cloudy with Nearby Thunderstorms 78 25.6 74 23.3 87 87 SW 7 11 29.94 1014 10 16 0.00 0.00
9:53 pm 21:53 Clear 76 24.4 71 21.7 85 85 SSW 5 7 29.95 1014 10 16 0.00 0.00
10:31 pm 22:31 Clear with Nearby Thunderstorms 75 23.9 72 22.2 90 90 Calm 29.94 1014 10 16 0.00 0.00
10:53 pm 22:53 Partly Cloudy 76 24.4 72 22.2 88 88 Calm 29.95 1014 10 16 0.00 0.00
11:53 pm 23:53 Mostly Cloudy 76 24.4 73 22.8 91 91 SSW 5 7 29.96 1014 10 16 0.00 0.00

Powered by AerisWeather